Voltar ao catálogo

GLOBALSTAR M067

AtivoComunicaçõesLEO
NORAD 32263·PAYLOAD·🇺🇸 United States

Lançado Oct 20, 2007 de Baikonur Cosmodrome

Loading…

Próximas Passagens (próximas 24 horas)

TLE

AtualizadoSource: Space-Track

Época: Sep 14, 2026, 09:46 UTC

1 32263U 07048A   26257.40714587 -.00000104  00000-0 -50274-4 0  9992
2 32263  51.9720 146.8170 0000461 198.2025 333.9394 12.40692435865860

Acompanhe GLOBALSTAR M067 em tempo real com AllMySat

Download on the App Store